• In Deutschland
  • Länderverzeichnis
  • Für 7 Tage
  • Wassertemperatur
  • Satellitenkarten
  • Wetterkarte
  • Widgets
  • user-avatar
    Anmelden

    Stündliche Wetter Julara

    Heute, 18 November, Samstag

    Zeit Temperatur Niederschläge Wind Luftdruck Luftfeuchtigkeit
    00:00 +34°C° 0 mm 5 m/S 716 mmHg 21%
    01:00 +33°C° 0 mm 5 m/S 716 mmHg 22%
    02:00 +32°C° 0 mm 5 m/S 715 mmHg 24%
    03:00 +30°C° 0 mm 5 m/S 715 mmHg 26%
    04:00 +30°C° 0 mm 5 m/S 715 mmHg 27%
    05:00 +29°C° 0 mm 5 m/S 716 mmHg 28%
    06:00 +29°C° 0 mm 5 m/S 716 mmHg 29%
    07:00 +32°C° 0 mm 4 m/S 716 mmHg 26%
    08:00 +34°C° 0 mm 4 m/S 716 mmHg 24%
    09:00 +36°C° 0 mm 4 m/S 716 mmHg 22%
    10:00 +37°C° 0 mm 3 m/S 716 mmHg 20%
    11:00 +38°C° 0 mm 3 m/S 716 mmHg 18%
    12:00 +40°C° 0 mm 2 m/S 715 mmHg 16%
    13:00 +40°C° 0 mm 2 m/S 715 mmHg 15%
    14:00 +40°C° 0 mm 2 m/S 714 mmHg 15%
    15:00 +41°C° 0 mm 2 m/S 714 mmHg 14%
    16:00 +40°C° 0 mm 2 m/S 714 mmHg 14%
    17:00 +40°C° 0 mm 2 m/S 714 mmHg 15%
    18:00 +40°C° 0 mm 2 m/S 714 mmHg 15%
    19:00 +39°C° 0 mm 3 m/S 714 mmHg 17%
    20:00 +38°C° 0 mm 4 m/S 714 mmHg 19%
    21:00 +37°C° 0 mm 4 m/S 714 mmHg 22%
    22:00 +36°C° 0 mm 4 m/S 714 mmHg 23%
    23:00 +36°C° 0 mm 3 m/S 714 mmHg 25%

    Morgen, 19 November, Sonntag

    Zeit Temperatur Niederschläge Wind Luftdruck Luftfeuchtigkeit
    00:00 +35°C° 0 mm 2 m/S 714 mmHg 26%
    01:00 +35°C° 0,1 mm 3 m/S 714 mmHg 26%
    02:00 +34°C° 0,1 mm 3 m/S 714 mmHg 26%
    03:00 +34°C° 0,1 mm 4 m/S 713 mmHg 27%
    04:00 +34°C° 0 mm 3 m/S 714 mmHg 27%
    05:00 +33°C° 0 mm 3 m/S 714 mmHg 27%
    06:00 +33°C° 0 mm 3 m/S 714 mmHg 27%
    07:00 +34°C° 0 mm 3 m/S 714 mmHg 25%
    08:00 +36°C° 0 mm 3 m/S 714 mmHg 23%
    09:00 +37°C° 0 mm 3 m/S 715 mmHg 21%
    10:00 +38°C° 0 mm 3 m/S 714 mmHg 20%
    11:00 +39°C° 0 mm 3 m/S 714 mmHg 19%
    12:00 +40°C° 0 mm 3 m/S 714 mmHg 18%
    13:00 +41°C° 0 mm 4 m/S 713 mmHg 19%
    14:00 +41°C° 0 mm 5 m/S 713 mmHg 20%
    15:00 +41°C° 0 mm 6 m/S 712 mmHg 21%
    16:00 +40°C° 0 mm 6 m/S 712 mmHg 22%
    17:00 +40°C° 0 mm 6 m/S 713 mmHg 22%
    18:00 +39°C° 0 mm 6 m/S 713 mmHg 23%
    19:00 +37°C° 0 mm 5 m/S 713 mmHg 26%
    20:00 +36°C° 0 mm 4 m/S 713 mmHg 29%
    21:00 +35°C° 0 mm 4 m/S 714 mmHg 32%
    22:00 +34°C° 0 mm 4 m/S 714 mmHg 32%
    23:00 +34°C° 0 mm 4 m/S 714 mmHg 33%

    übermorgen, 20 November, Montag

    Zeit Temperatur Niederschläge Wind Luftdruck Luftfeuchtigkeit
    00:00 +34°C° 0 mm 3 m/S 714 mmHg 33%
    01:00 +33°C° 0 mm 4 m/S 714 mmHg 33%
    02:00 +32°C° 0 mm 4 m/S 713 mmHg 34%
    03:00 +30°C° 0 mm 4 m/S 713 mmHg 34%
    04:00 +30°C° 0 mm 4 m/S 714 mmHg 36%
    05:00 +29°C° 0 mm 4 m/S 714 mmHg 38%
    06:00 +29°C° 0 mm 3 m/S 715 mmHg 41%
    07:00 +31°C° 0 mm 3 m/S 715 mmHg 36%
    08:00 +34°C° 0 mm 3 m/S 715 mmHg 31%
    09:00 +35°C° 0 mm 3 m/S 715 mmHg 26%
    10:00 +37°C° 0 mm 4 m/S 715 mmHg 21%
    11:00 +40°C° 0 mm 5 m/S 715 mmHg 16%
    12:00 +41°C° 0 mm 6 m/S 714 mmHg 12%
    13:00 +43°C° 0 mm 7 m/S 714 mmHg 11%
    14:00 +43°C° 0 mm 7 m/S 713 mmHg 10%
    15:00 +44°C° 0 mm 8 m/S 712 mmHg 10%
    16:00 +43°C° 0 mm 8 m/S 712 mmHg 10%
    17:00 +41°C° 0 mm 8 m/S 712 mmHg 11%
    18:00 +40°C° 0 mm 8 m/S 713 mmHg 12%
    19:00 +39°C° 0 mm 7 m/S 713 mmHg 13%
    20:00 +36°C° 0 mm 6 m/S 714 mmHg 15%
    21:00 +35°C° 0 mm 5 m/S 714 mmHg 17%
    22:00 +34°C° 0 mm 6 m/S 714 mmHg 19%
    23:00 +33°C° 0 mm 6 m/S 714 mmHg 20%

    21 November, Dienstag

    Zeit Temperatur Niederschläge Wind Luftdruck Luftfeuchtigkeit
    00:00 +33°C° 0 mm 7 m/S 714 mmHg 22%
    01:00 +32°C° 0 mm 7 m/S 714 mmHg 23%
    02:00 +30°C° 0 mm 6 m/S 714 mmHg 24%
    03:00 +29°C° 0 mm 6 m/S 713 mmHg 25%
    04:00 +29°C° 0 mm 6 m/S 713 mmHg 27%
    05:00 +28°C° 0 mm 5 m/S 713 mmHg 29%
    06:00 +28°C° 0 mm 5 m/S 714 mmHg 30%
    07:00 +30°C° 0 mm 5 m/S 714 mmHg 27%
    08:00 +33°C° 0 mm 6 m/S 714 mmHg 23%
    09:00 +35°C° 0 mm 6 m/S 715 mmHg 20%
    10:00 +36°C° 0 mm 6 m/S 714 mmHg 17%
    11:00 +39°C° 0 mm 7 m/S 714 mmHg 13%
    12:00 +41°C° 0 mm 7 m/S 714 mmHg 10%
    13:00 +41°C° 0 mm 8 m/S 713 mmHg 10%
    14:00 +43°C° 0 mm 8 m/S 713 mmHg 9%
    15:00 +43°C° 0 mm 9 m/S 712 mmHg 8%
    16:00 +42°C° 0 mm 9 m/S 712 mmHg 9%
    17:00 +41°C° 0 mm 8 m/S 712 mmHg 9%
    18:00 +40°C° 0 mm 8 m/S 712 mmHg 9%
    19:00 +38°C° 0 mm 7 m/S 713 mmHg 11%
    20:00 +36°C° 0 mm 6 m/S 713 mmHg 12%
    21:00 +35°C° 0 mm 6 m/S 714 mmHg 13%
    22:00 +34°C° 0 mm 6 m/S 713 mmHg 14%
    23:00 +33°C° 0 mm 6 m/S 713 mmHg 15%

    22 November, Mittwoch

    Zeit Temperatur Niederschläge Wind Luftdruck Luftfeuchtigkeit
    00:00 +33°C° 0 mm 6 m/S 713 mmHg 16%
    01:00 +32°C° 0 mm 5 m/S 713 mmHg 17%
    02:00 +30°C° 0 mm 5 m/S 712 mmHg 19%
    03:00 +30°C° 0 mm 5 m/S 712 mmHg 20%
    04:00 +29°C° 0 mm 5 m/S 712 mmHg 24%
    05:00 +29°C° 0 mm 5 m/S 713 mmHg 28%
    06:00 +29°C° 0 mm 6 m/S 713 mmHg 31%
    07:00 +32°C° 0 mm 5 m/S 714 mmHg 31%
    08:00 +33°C° 0 mm 5 m/S 714 mmHg 30%
    09:00 +34°C° 0 mm 5 m/S 715 mmHg 29%
    10:00 +36°C° 0 mm 4 m/S 714 mmHg 26%
    11:00 +37°C° 0 mm 4 m/S 714 mmHg 23%
    12:00 +38°C° 0 mm 3 m/S 714 mmHg 19%
    13:00 +38°C° 0 mm 3 m/S 713 mmHg 19%
    14:00 +38°C° 0 mm 4 m/S 713 mmHg 18%
    15:00 +38°C° 0 mm 4 m/S 712 mmHg 17%
    16:00 +39°C° 0 mm 5 m/S 713 mmHg 18%
    17:00 +39°C° 0 mm 5 m/S 713 mmHg 19%
    18:00 +38°C° 0 mm 6 m/S 713 mmHg 20%
    19:00 +36°C° 0,1 mm 6 m/S 714 mmHg 23%
    20:00 +35°C° 0,1 mm 7 m/S 714 mmHg 27%
    21:00 +33°C° 0,1 mm 7 m/S 714 mmHg 31%
    22:00 +33°C° 0 mm 7 m/S 714 mmHg 32%
    23:00 +32°C° 0 mm 6 m/S 715 mmHg 34%

    23 November, Donnerstag

    Zeit Temperatur Niederschläge Wind Luftdruck Luftfeuchtigkeit
    00:00 +30°C° 0 mm 6 m/S 715 mmHg 36%
    01:00 +29°C° 0 mm 6 m/S 714 mmHg 39%
    02:00 +28°C° 0 mm 7 m/S 714 mmHg 43%
    03:00 +27°C° 0 mm 7 m/S 714 mmHg 47%
    04:00 +26°C° 0 mm 8 m/S 714 mmHg 52%
    05:00 +24°C° 0 mm 8 m/S 715 mmHg 56%
    06:00 +24°C° 0 mm 9 m/S 715 mmHg 60%
    07:00 +27°C° 0 mm 8 m/S 716 mmHg 51%
    08:00 +29°C° 0 mm 8 m/S 716 mmHg 43%
    09:00 +32°C° 0 mm 8 m/S 716 mmHg 34%
    10:00 +33°C° 0 mm 7 m/S 716 mmHg 31%
    11:00 +34°C° 0 mm 6 m/S 716 mmHg 27%
    12:00 +36°C° 0 mm 4 m/S 715 mmHg 24%
    13:00 +36°C° 0 mm 4 m/S 715 mmHg 22%
    14:00 +37°C° 0 mm 4 m/S 714 mmHg 20%
    15:00 +37°C° 0 mm 4 m/S 714 mmHg 18%
    16:00 +37°C° 0 mm 5 m/S 714 mmHg 19%
    17:00 +36°C° 0 mm 5 m/S 714 mmHg 20%
    18:00 +36°C° 0 mm 6 m/S 714 mmHg 21%
    19:00 +35°C° 0 mm 7 m/S 715 mmHg 23%
    20:00 +34°C° 0 mm 8 m/S 715 mmHg 26%
    21:00 +33°C° 0 mm 8 m/S 716 mmHg 28%
    22:00 +32°C° 0 mm 8 m/S 716 mmHg 32%
    23:00 +31°C° 0 mm 8 m/S 715 mmHg 36%
    Mehr zeigen